Location: Sungai Kamana Besar
(2.6333°N, 113.4333°E)
Time: 06:29:54
(UTC+00:00)

Cosmos 1339 Rocket - Pass Details

Date: 29 May 2022
Orbit: 941 x 1006 km, 82.9° (Epoch: 26 June)

Event Time Altitude Azimuth Distance (km) Brightness Sun altitude
Exits shadow 20:36:36 36° 199° (SSW) 1,531 5.2 -23.7°
Maximum altitude 20:39:20 71° 273° (W) 1,053 4.4 -23.0°
Drops below altitude 10° 20:45:41 10° 357° (N) 2,770 7.1 -21.6°
Sets 20:48:14 0° 359° (N) 3,720 7.9 -21.0°
